Location: Newark
(45.7167°N, 7.8833°E)
Time: 17:23:56
(UTC+00:00)

Envisat - Visible Passes

Search period start: 05 April 2020 00:00
Search period end: 15 April 2020 00:00
Orbit: 764 x 766 km, 98.1° (Epoch: 04 April)

Date Brightness Start Highest point End Pass type
(mag) Time Alt. Az. Time Alt. Az. Time Alt. Az.
05 Apr 6.2 18:35:16 10° WSW 18:38:00 14° W 18:40:45 10° NW visible
10 Apr 6.6 18:51:47 10° W 18:52:23 10° W 18:52:59 10° WNW visible
13 Apr 6.2 18:38:31 10° WSW 18:40:54 13° W 18:43:18 10° WNW visible
